METEOR 1-22 DEB

Satellite information

Favourite Embed

Satellite Type and Status

DEBRISIN ORBIT

Key statistics

Satellite METEOR 1-22 DEB at a glance.

Uptime

18349

Days in orbit

Revolutions

≈ 14.1

Per day

Orbit

LEO

Low Earth Orbit

Inclination

81.2

Latest

Satellite identification and parameters

Extended collection of information and parameters for METEOR 1-22 DEB.

Object identification

Identified? True

Debris? True

Object name: METEOR 1-22 DEB

International designator: 1975-087C

Object number (NORAD): 36302

Object ID (CCSDS): 36302

Country: COMMONWEALTH OF INDEPENDENT STATES (CIS)

Current information (Y/N): Y

RCS size: SMALL

Orbital parameters

Period: 102.147 minutes

Inclination: 81.2496 deg

SMA: 7238.424 km

Apoapsis: 940.806 km

Periapsis: 779.773 km

RAAN: 256.7616 deg

Eccentricy: 0.01112353

Argument of periapsis: 285.1349 deg

Mean anomaly: 252.9366 deg

Mean motion: 14.09732461 rev/day

Mean motion (dot): 0.00000196 rev/day2

B* drag term: 0.0000995754 1/REarth

Two-line elements (TLE)

Creation date: Dec. 11, 2025, 7:14 p.m.

Reference frame: TEME

Reference center: EARTH

Epoch: Dec. 11, 2025, 11:49 a.m. UTC

TLE line 0: 0 METEOR 1-22 DEB

TLE line 1: 1 36302U 75087C 25345.49276751 .00000196 00000-0 99575-4 0 9996

TLE line 2: 2 36302 81.2496 256.7616 0111235 285.1349 252.9366 14.09732461864462

Live tracking on map

Real-time ground track for satellite METEOR 1-22 DEB.

In-orbit conjunctions

A list of the most updated potential collisions computed for object METEOR 1-22 DEB.

Target Orbit TCA Probability of collision Miss distance Type
FENGYUN 1C DEB SSO 2024-12-31 20:09:26 0.0009763362 45.0 (m) DEBRIS
FENGYUN 1C DEB SSO 2024-11-10 03:55:13 0.0001036785 314.0 (m) DEBRIS
COSMOS 951 DEB LEO 2024-09-26 12:17:49 0.001888651 679.0 (m) DEBRIS
NOAA 16 DEB SSO 2024-06-11 03:25:25 0.001980367 51.0 (m) DEBRIS
CZ-4 DEB SSO 2024-06-02 08:05:53 0.0001081708 176.0 (m) DEBRIS

Associated space launch

The Meteor-1 series was the first series of Soviet meteorological satellites.

METEOR 1-22 DEB was lifted into orbit during the mission ‘Vostok 8A92M | Meteor-1 22 (28L)’, on board a Vostok 8A92M space rocket.

The launch took place on Sept. 18, 1975, 12:12 a.m. from 41/1.

For more information about the launch, click the button.

Launch to space Vostok 8A92M | Meteor-1 22 (28L)
Vostok 8A92M | Meteor-1 22 (28L)

Agency: N/A

Status: Launch Successful

Launch date: Sept. 18, 1975, 12:12 a.m. UTC

Rocket: Vostok 8A92M

Launch pad: 41/1

Location: Plesetsk Cosmodrome, Russian Federation

...

Latest news about this satellite

There are no fresh news available about this satellite. Check back as we update our databases every day.


Newsletter sign-up

Weekly statistics, charts and insights to help you stay on top of the space industry.